Regional Weather Roundup
Issued by NWS

Home | Current Version | Previous Version | Graphics & Text | Print | Product List | Glossary Off
Versions: 1 2 3 4 5 6 7 8 9 10 11 12 13 14 15 16 17 18 19 20 21 22 23 24 25 26 27 28 29 30 31 32 33 34 35 36 37 38 39 40 41 42 43 44 45 46 47 48 49 50

000
ASUS43 KMKX 160911
RWRWI

WISCONSIN REGIONAL WEATHER ROUNDUP
NATIONAL WEATHER SERVICE MILWAUKEE/SULLIVAN WI
400 AM CDT WED AUG 16 2017

NOTE: "FAIR" INDICATES FEW OR NO CLOUDS BELOW 12,000 FEET WITH NO
SIGNIFICANT WEATHER AND/OR OBSTRUCTIONS TO VISIBILITY.

WIZ001-002-006>008-014>016-023>028-161000-
NORTHWEST WISCONSIN

CITY           SKY/WX    TMP DP  RH WIND       PRES   REMARKS
SUPERIOR ARPT    N/A     61  58  88 NE5       30.01S
ASHLAND        CLOUDY    49  49 100 SE3       30.03S FOG
HAYWARD        CLOUDY    57  54  89 CALM      30.02F
SIREN          CLOUDY    61  57  88 SE3       30.00R
CUMBERLAND     MOCLDY    57  54  88 CALM      30.01S
RICE LAKE      MOCLDY    59  56  91 E5        30.02F
CHETEK         MOCLDY    60  58  93 E6        30.02S
LADYSMITH      CLOUDY    59  55  88 E5        30.05S
EAU CLAIRE     CLOUDY    63  57  81 E7        30.00R
MENOMONIE      CLOUDY    61  58  91 CALM      30.00R
NEW RICHMOND   CLOUDY    61  57  86 SE5       29.99S
OSCEOLA        CLOUDY    63  57  82 SE7       30.00S
$$

WIZ003>005-009-010-017-018-161000-
NORTH CENTRAL WISCONSIN

CITY           SKY/WX    TMP DP  RH WIND       PRES   REMARKS
MANITOWISH WTR CLOUDY    55  55 100 SE7       30.06S
ARBOR VITAE    MOCLDY    57  55  95 SE3       30.06S
WOODRUFF       MOCLDY    57  55  95 SE3       30.06S
RHINELANDER    CLOUDY    57  57 100 E6        30.08R
EAGLE RIVER    CLOUDY    55  53  91 SE3       30.07S
LAND O LAKES   CLOUDY    52  52 100 CALM      30.10R
PHILLIPS       CLOUDY    53  53 100 CALM      30.04S
TOMAHAWK         N/A     54  53  97 CALM      30.06S FOG
MEDFORD        PTCLDY    55  54  98 CALM      30.04S
MERRILL        MOCLDY    54  54 100 CALM      30.06S
$$

WIZ029-030-035-036-043>047-161000-
CENTRAL WISCONSIN

CITY           SKY/WX    TMP DP  RH WIND       PRES   REMARKS
WAUSAU         PTCLDY    58  58 100 E7        30.04R
MOSINEE        PTCLDY    57  57 100 E3        30.06R FOG
MARSHFIELD     CLOUDY    62  58  86 SE3       30.03R
STEVENS POINT  PTCLDY    58  58 100 E3        30.05R
WAUPACA        CLOUDY    62  62  98 CALM      30.05R
WAUTOMA        CLOUDY    60  59  96 NE3       30.04R
WISC RAPIDS    CLOUDY    63  59  87 SE5       30.04R
CAMP DOUGLAS   CLOUDY    63  61  94 E3        30.02R
$$

WIZ011>013-019>022-031-037>040-048>050-161000-
NORTHEAST WISCONSIN

CITY           SKY/WX    TMP DP  RH WIND       PRES   REMARKS
ANTIGO         CLOUDY    57  57 100 E5        30.07S
SHAWANO        CLOUDY    62  60  92 N3        30.06R
OCONTO         CLOUDY    60  58  95 N3        30.05S
STURGEON BAY   CLOUDY    61  60  97 NE5       30.05S
GREEN BAY      CLOUDY    60  60 100 CALM      30.04S
MANITOWOC      FOG       61  57  88 CALM      30.04S VSB 1/2
APPLETON       MOCLDY    61  59  94 NE5       30.04R
CLINTONVILLE     N/A     59  55  88 NE5       30.05S
OSHKOSH        MOCLDY    62  59  90 CALM      30.03R
$$

WIZ032>034-041-042-053>061-161000-
SOUTHWEST WISCONSIN

CITY           SKY/WX    TMP DP  RH WIND       PRES   REMARKS
LA CROSSE      CLOUDY    68  63  84 E6        29.99R
SPARTA         CLOUDY    64  60  88 E3        30.02R
VIROQUA        CLOUDY    63  61  91 E9        30.01R
BOSCOBEL       PTCLDY    63  61  93 NE5       29.99R
PRAIRIE DU CHI CLOUDY    65  59  79 E3        29.97R
PLATTEVILLE    CLEAR     62  62 100 E9        29.99S
$$

WIZ056-057-062-063-064-067-068-161000-
SOUTH CENTRAL WISCONSIN

CITY           SKY/WX    TMP DP  RH WIND       PRES   REMARKS
REEDSBURG      CLOUDY    64  61  90 CALM      30.02R
BARABOO/DELLS  CLOUDY    63  57  82 E5        30.02S
LONE ROCK      MOCLDY    64  61  90 E6        30.00S
MINERAL POINT  CLEAR     64  61  88 E7        30.00S
MADISON        MOCLDY    61  59  93 NE3       30.01F
MIDDLETON      PTCLDY    64  61  90 CALM      30.02S
WATERTOWN      PTCLDY    58  58 100 CALM      30.02S
MONROE         CLEAR     61  59  94 NE7       30.00S
JANESVILLE     PTCLDY    61  61 100 NE3       30.00S
$$

WIZ051-052-058>065-066-070>072-161000-
SOUTHEAST WISCONSIN

CITY           SKY/WX    TMP DP  RH WIND       PRES   REMARKS
MILWAUKEE      PTCLDY    62  59  90 N5        30.01R
WAUKESHA       CLEAR     55  55 100 CALM      30.03S FOG
MILWAUKEE/TIMM PTCLDY    57  54  88 CALM      30.03S
RACINE         PTCLDY    63  59  87 N3        30.02S
KENOSHA        CLEAR     57  56  96 N3        30.01R
FOND DU LAC    CLOUDY    57  54  89 CALM      30.03S
SHEBOYGAN      FOG       55  55 100 NW3       30.03S VSB 3/4
WEST BEND      PTCLDY    55  55 100 CALM      30.04R FOG
JUNEAU         CLOUDY    58  56  95 CALM      30.04S
$$

LSZ147-162-161000-
LAKE SUPERIOR

STATION/POSITION TIME  TEMP    WIND        PRES    WAVE
                       AIR SEA DIR/SP/G            HT/PER
                 (UTC) (F)     (DEG/KT/KT) (MB)    (FT/S)
W MID LAKE BUOY  0750   61 60  120/  6/  6 1017.3R   1/ 4
DEVILS ISLAND    0900   62      90/ 10/ 11 1016.9F
SAXON HARBOR     0840   52     170/  2/  3 1016.6S
$$

LMZ867-665-643>646-161000-
LAKE MICHIGAN

STATION/POSITION TIME  TEMP    WIND        PRES    WAVE
                       AIR SEA DIR/SP/G            HT/PER
                 (UTC) (F)     (DEG/KT/KT) (MB)    (FT/S)
S GREEN BAY BUOY 0900   67 72   70/ 10/ 14 1017.0
N MID LAKE BUOY  0750   64 67   80/  8/ 12 1018.0R   1/ 3
NORTHPORT PIER   0840   65      70/  7/ 10 1017.6R
KEWAUNEE LAKESHO 0848   66      60/  2/  5 1016.1R
SHEBOYGAN LAKESH 0900   68      80/  6/  8 1016.4S
PORT WASHINGTON  0830   63     330/  2/  3 1017.3R
ATWATER BUOY     0839   69 71   50/  6/  8 1016.5R
MILWAUKEE LAKESH 0850   69      50/  5/  6   N/A
S MID LAKE BUOY  0750   70 71   50/  6/  6 1015.7F   2/ 5
KENOSHA   LAKESH 0900   70      70/  6/  8 1015.9
$$

TC  - TEMPERATURE IN CELSIUS
VSB - VISIBILITY IN STATUTE MILES
WCI - WIND CHILL INDEX
HX  - HEAT INDEX





USA.gov is the U.S. government's official web portal to all federal, state and local government web resources and services.